Regional Weather Roundup
Issued by NWS Newport/Morehead, NC

Current Version | Previous Version | Graphics & Text | Print | Product List | Glossary Off
Versions: 1 2 3 4 5 6 7 8 9 10 11 12 13 14 15 16 17 18 19 20 21 22 23 24 25 26 27 28 29 30 31 32 33 34 35 36 37 38 39 40 41 42 43 44 45 46 47 48 49 50

000
ASUS42 KMHX 151513
RWRMHX
WEATHER ROUNDUP FOR EASTERN NORTH CAROLINA
NATIONAL WEATHER SERVICE NEWPORT/MOREHEAD CITY NC
1000 AM EST FRI DEC 15 2017

NOTE: "FAIR" INDICATES FEW OR NO CLOUDS BELOW 12,000 FEET
WITH NO SIGNIFICANT WEATHER AND/OR OBSTRUCTIONS TO VISIBILITY

NCZ015>017-031-032-045>047-102-103-151600-
NORTH COAST

CITY           SKY/WX    TMP DP  RH WIND       PRES   REMARKS
EDENTON        PTSUNNY   48  40  73 CALM      29.99S
ELIZABETH CITY MOSUNNY   44  40  85 NW3       29.98F
KITTY HAWK     PTSUNNY   53  45  73 E6        29.97R
MANTEO         PTSUNNY   54  46  72 E12       29.98R

$$

NCZ045>047-081-094-103-104-151600-
CENTRAL COAST

CITY           SKY/WX    TMP DP  RH WIND       PRES   REMARKS
FRISCO         MOSUNNY   60  51  72 CALM      29.96S

$$

NCZ095-097-098-100-101-151600-
SOUTHERN COAST

CITY           SKY/WX    TMP DP  RH WIND       PRES   REMARKS
BEAUFORT       SUNNY     53  48  83 CALM      29.99R
CEDAR ISLAND   NOT AVBL
JACKSONVILLE   SUNNY     48  43  82 CALM      29.99R
PINEY ISLAND     N/A    N/A N/A N/A E6        29.97F
WILMINGTON     MOSUNNY   48  43  82 CALM      30.01R


$$

NCZ011>013-027>030-043-044-078>080-089-090>093-098-151600-
COASTAL PLAIN

CITY           SKY/WX    TMP DP  RH WIND       PRES   REMARKS
AHOSKIE        CLOUDY    36  28  72 CALM      30.00R
CLINTON        SUNNY     44  38  82 CALM      30.00S
ELIZABETHTOWN  NOT AVBL
GOLDSBORO      MOSUNNY   43  33  68 CALM      29.98R
GREENVILLE     SUNNY     41  32  70 CALM      30.01R
HAVELOCK       SUNNY     53  47  79 S5        29.99S
KENANSVILLE    SUNNY     43  37  81 CALM      29.99S HAZE
KINSTON        SUNNY     45  37  76 S5        30.00R
NEW BERN       SUNNY     49  44  83 CALM      29.99S
RICHLANDS      SUNNY     49  43  80 S6        30.00R
ROCKY MOUNT    MOSUNNY   38  28  67 VRB3      30.01R
WASHINGTON     SUNNY     41  36  81 CALM      29.99S
WHITEVILLE     SUNNY     47  40  75 SW5       30.01R

$$

AMZ130-135-150-152-154-156-158-170-250-252-270-ANZ085-086-088-633-658-670-151600-
MARINE OBSERVATIONS

STATION/POSITION TIME  TEMP    WIND        PRES    WAVE   SWELL
                       AIR SEA DIR/SP/G            HT/PER HT/PER
                 (UTC) (F)     (DEG/KT/KT) (MB)    (FT/S) (FT/S)
CHESAPEAKE LIGHT NOT AVBL
64 E VA BEACH    1450   50 59   80/ 16/ 19 1015.8    4/ 6   2/ 8
DUCK             1442   52 52   90/ 15/ 18 1014.5
2 E DUCK         1500      55                N/A     4/ 4
OREGON INLET     1442   55 45   60/ 10/ 13 1014.7
13E OREGON INLT  1448      64                N/A     4/ 6   3/ 6
HATTERAS CG      1442   55 53   80/  5/  6 1014.5
DIAMOND BUOY     1500   64 74  210/ 16/ 19 1015.0
CAPE LOOKOUT     1500          230/  6/  9 1015.7
BEAUFORT LAB     1442   50 51   CALM  /  1 1015.4
30 SE NEW RVR IN 1408   59 65  230/ 10/ 12 1015.4
30 SE NEW RVR IN 1500      65                N/A     3/ 6
27 SE WRIGHTSVLE 1408   58 64  220/ 10/ 14 1015.7
5 SE WRIGHTSVLE  1408   54 56  250/  6/  8 1015.1
225 S CAPE HAT   1450   72 74  230/ 12/ 16 1017.1    6/ 7   5/ 7
41 SE CHARLESTON 1500   63 73  230/ 14/ 17 1016.3

$$



USA.gov is the U.S. government's official web portal to all federal, state and local government web resources and services.